Grand Island, NE

7:47 AM CST on February 13, 2016 (GMT -0600)
Central Nebraska Regional

Weather History for KGRI - June, 2013

Change the Weather History Date:

Saturday, June 22, 2013

  Actual Average Record
Temperature  
Mean Temperature 79 °F 73 °F  
Max Temperature 92 °F 86 °F 102 °F (1937)
Min Temperature 65 °F 61 °F 46 °F (2001)
Degree Days  
Heating Degree Days 0 0  
Month to date heating degree days 21 21  
Since 1 June heating degree days 21 21  
Since 1 July heating degree days 6133 6196  
Cooling Degree Days 14 9  
Month to date cooling degree days 169 134  
Year to date cooling degree days 264 199  
Since 1 June cooling degree days 169 134  
Growing Degree Days 28 (Base 50)    
Moisture  
Dew Point 64 °F    
Average Humidity 67    
Maximum Humidity 93    
Minimum Humidity 41    
Precipitation  
Precipitation 0.38 in 0.13 in 2.37 in (1899)
Month to date precipitation 0.67 3.23  
Year to date precipitation 14.04 13.18  
Snow  
Snow 0.00 in 0.00 in - ()
Month to date snowfall 0.0 0.0  
Since 1 June snowfall 0.0 0.0  
Since 1 July snowfall 35.2 29.0  
Snow Depth 0.00 in    
Sea Level Pressure  
Sea Level Pressure 29.84 in    
Wind  
Wind Speed 15 mph (ESE)    
Max Wind Speed 25 mph    
Max Gust Speed 31 mph    
Visibility 9 miles    
Events Rain , Thunderstorm    
T = Trace of Precipitation, MM = Missing Value Source: NWS Daily Summary

Daily Weather History Graph

Daily Weather History Graph

Search for Another Location

Airport or City:

Trip Planner

Search our weather history database for the weather conditions in past years. The results will help you decide how hot, cold, wet, or windy it might be!

Date:

Astronomy

Jun. 22, 2013 Rise Set
Actual Time 6:01 AM CDT 9:09 PM CDT
Civil Twilight 5:28 AM CDT 9:42 PM CDT
Nautical Twilight 4:44 AM CDT 10:25 PM CDT
Astronomical Twilight 3:53 AM CDT 11:16 PM CDT
Moon 8:24 PM CDT (6/22) 5:16 AM CDT (6/22)
Length of Visible Light 16h 14m
Length of Day
15h 07m
Waxing Gibbous, 99% of the Moon is Illuminated
Jun 22
Waxing Gibbous
Jun 23
Full
Jun 29
Last Quarter
Jul 8
New
Jul 15
First Quarter

Hourly Weather History & Observations

Time (CDT) Temp. Heat Index Dew Point Humidity Pressure Visibility Wind Dir Wind Speed Gust Speed Precip Events Conditions
12:11 AM 82.4 °F 83.4 °F 62.6 °F 51% 29.91 in 10.0 mi West 13.8 mph 26.5 mph N/A   Mostly Cloudy
12:32 AM 75.2 °F - 57.2 °F 53% 29.92 in 10.0 mi NNW 17.3 mph 29.9 mph N/A Thunderstorm Overcast
12:53 AM 73.0 °F - 57.9 °F 59% 29.88 in 10.0 mi NNW 23.0 mph 32.2 mph N/A Thunderstorm Thunderstorm
1:22 AM 66.2 °F - 64.4 °F 94% 29.92 in 6.0 mi Variable 6.9 mph 20.7 mph 0.16 in Rain , Thunderstorm Light Thunderstorms and Rain
1:31 AM 66.2 °F - 64.4 °F 94% 29.94 in 10.0 mi ESE 11.5 mph - 0.18 in Rain , Thunderstorm Light Thunderstorms and Rain
1:40 AM 64.4 °F - 64.4 °F 100% 29.95 in 10.0 mi East 15.0 mph - 0.18 in Thunderstorm Thunderstorm
1:53 AM 64.9 °F - 63.0 °F 93% 29.86 in 10.0 mi SE 10.4 mph - 0.19 in Rain , Thunderstorm Light Thunderstorms and Rain
2:12 AM 66.2 °F - 64.4 °F 94% 29.92 in 10.0 mi ESE 11.5 mph - 0.00 in   Partly Cloudy
2:53 AM 66.9 °F - 66.0 °F 97% 29.81 in 10.0 mi ESE 10.4 mph - 0.00 in   Clear
3:53 AM 68.0 °F - 66.0 °F 93% 29.86 in 10.0 mi NNW 5.8 mph - N/A   Mostly Cloudy
4:07 AM 66.2 °F - 64.4 °F 94% 29.93 in 10.0 mi North 13.8 mph - N/A   Overcast
4:53 AM 68.0 °F - 64.0 °F 87% 29.89 in 10.0 mi ENE 10.4 mph - N/A   Overcast
5:53 AM 68.0 °F - 63.0 °F 84% 29.91 in 10.0 mi NE 10.4 mph - N/A   Overcast
6:53 AM 66.9 °F - 63.0 °F 87% 29.92 in 10.0 mi NNE 17.3 mph - 0.00 in Rain , Thunderstorm Light Rain
7:08 AM 66.2 °F - 62.6 °F 88% 30.00 in 9.0 mi NE 8.1 mph 20.7 mph 0.01 in Rain , Thunderstorm Light Thunderstorms and Rain
7:15 AM 66.2 °F - 62.6 °F 88% 29.97 in 7.0 mi East 13.8 mph - 0.01 in Rain , Thunderstorm Light Thunderstorms and Rain
7:20 AM 66.2 °F - 62.6 °F 88% 29.94 in 3.0 mi East 20.7 mph 26.5 mph 0.09 in Rain , Thunderstorm Heavy Thunderstorms and Rain
7:29 AM 66.2 °F - 62.6 °F 88% 29.93 in 2.5 mi East 20.7 mph 26.5 mph 0.17 in Rain , Thunderstorm Thunderstorms and Rain
7:36 AM 64.4 °F - 62.6 °F 94% 29.91 in 4.0 mi ESE 23.0 mph 31.1 mph 0.19 in Rain , Thunderstorm Light Rain
7:51 AM 66.2 °F - 62.6 °F 88% 29.92 in 10.0 mi East 18.4 mph 26.5 mph 0.19 in   Scattered Clouds
7:53 AM 66.9 °F - 62.1 °F 84% 29.87 in 10.0 mi East 19.6 mph 25.3 mph 0.19 in   Scattered Clouds
8:53 AM 68.0 °F - 63.0 °F 84% 29.87 in 10.0 mi East 16.1 mph 21.9 mph N/A   Overcast
9:53 AM 71.1 °F - 64.0 °F 78% 29.85 in 10.0 mi ESE 18.4 mph - N/A   Clear
10:53 AM 71.1 °F - 63.0 °F 75% 29.84 in 10.0 mi ESE 15.0 mph - N/A   Clear
11:53 AM 75.9 °F - 64.9 °F 69% 29.81 in 10.0 mi ESE 17.3 mph - N/A   Clear
12:53 PM 82.0 °F 84.5 °F 66.9 °F 60% 29.82 in 10.0 mi SE 15.0 mph 19.6 mph N/A   Clear
1:53 PM 84.9 °F 88.2 °F 68.0 °F 57% 29.81 in 10.0 mi SSE 13.8 mph 24.2 mph N/A   Partly Cloudy
2:53 PM 88.0 °F 91.4 °F 68.0 °F 51% 29.78 in 10.0 mi SSE 17.3 mph 24.2 mph N/A   Partly Cloudy
3:53 PM 91.0 °F 93.0 °F 64.9 °F 42% 29.75 in 10.0 mi South 21.9 mph 26.5 mph N/A   Partly Cloudy
4:53 PM 89.1 °F 91.3 °F 66.0 °F 46% 29.73 in 10.0 mi South 15.0 mph 24.2 mph N/A   Scattered Clouds
5:53 PM 90.0 °F 92.4 °F 66.0 °F 45% 29.70 in 10.0 mi SSE 16.1 mph 19.6 mph N/A   Mostly Cloudy
6:53 PM 90.0 °F 91.3 °F 64.0 °F 42% 29.68 in 10.0 mi South 18.4 mph 29.9 mph N/A   Mostly Cloudy
7:53 PM 88.0 °F 89.6 °F 64.9 °F 46% 29.67 in 10.0 mi SSE 13.8 mph 23.0 mph N/A   Mostly Cloudy
8:53 PM 87.1 °F 88.3 °F 64.0 °F 46% 29.68 in 10.0 mi SSE 16.1 mph 23.0 mph N/A   Mostly Cloudy
9:53 PM 84.9 °F 85.9 °F 63.0 °F 48% 29.70 in 10.0 mi SSE 17.3 mph 26.5 mph N/A   Mostly Cloudy
10:53 PM 82.9 °F 84.4 °F 64.0 °F 53% 29.71 in 10.0 mi SSE 18.4 mph 27.6 mph N/A   Clear
11:53 PM 81.0 °F 82.5 °F 64.0 °F 56% 29.68 in 10.0 mi SSE 20.7 mph 28.8 mph N/A   Clear